Location: Cumbre Roja
(10.2766°N, 67.0675°W)
Time: 23:24:51
(UTC+00:00)

Cosmos 292 Rocket - Pass Details

Date: 18 November 2025
Orbit: 662 x 682 km, 74.0° (Epoch: 14 December)

Event Time Altitude Azimuth Distance (km) Brightness Sun altitude
Rises 23:05:54 0° 181° (S) 3,010 7.3 -15.6°
Reaches altitude 10° 23:08:15 10° 175° (S) 2,100 6.4 -16.2°
Maximum altitude 23:12:47 47° 102° (ESE) 898 4.0 -17.2°
Enters shadow 23:14:41 30° 48° (NE) 1,205 4.5 -17.7°
